Wetterdaten: Woche 04.03.19 - 10.03.19 (KW10)
Datum Zeit Temp. A. Feuchte A. Luftdruck Regen Wind Richtung Taupunkt Windchill Windben
04.03.2019 00:00 0,0 C 0 % 1008,4 hPa 0,0 l/m 0,0 km/h - - -60,0 C 0,0 C 0,0 km/h
04.03.2019 01:00 0,0 C 0 % 1008,1 hPa 0,0 l/m 0,0 km/h - - -60,0 C 0,0 C 0,0 km/h
04.03.2019 02:00 0,0 C 0 % 1007,5 hPa 0,0 l/m 0,0 km/h - - -60,0 C 0,0 C 0,0 km/h
04.03.2019 03:00 0,0 C 0 % 1007,1 hPa 0,0 l/m 0,0 km/h - - -60,0 C 0,0 C 0,0 km/h
04.03.2019 04:00 0,0 C 0 % 1007,0 hPa 0,0 l/m 0,0 km/h - - -60,0 C 0,0 C 0,0 km/h
04.03.2019 05:00 0,0 C 0 % 1006,4 hPa 0,0 l/m 0,0 km/h - - -60,0 C 0,0 C 0,0 km/h
04.03.2019 06:00 0,0 C 0 % 1005,7 hPa 0,0 l/m 0,0 km/h - - -60,0 C 0,0 C 0,0 km/h
04.03.2019 07:00 0,0 C 0 % 1005,1 hPa 0,0 l/m 0,0 km/h - - -60,0 C 0,0 C 0,0 km/h
04.03.2019 08:00 0,0 C 0 % 1004,6 hPa 0,0 l/m 0,0 km/h - - -60,0 C 0,0 C 0,0 km/h
04.03.2019 09:00 0,0 C 0 % 1003,7 hPa 0,0 l/m 0,0 km/h - - -60,0 C 0,0 C 0,0 km/h
04.03.2019 10:00 0,0 C 0 % 1002,3 hPa 0,0 l/m 0,0 km/h - - -60,0 C 0,0 C 0,0 km/h
04.03.2019 11:00 0,0 C 0 % 1001,2 hPa 0,0 l/m 0,0 km/h - - -60,0 C 0,0 C 0,0 km/h
04.03.2019 12:00 0,0 C 0 % 1000,0 hPa 0,0 l/m 0,0 km/h - - -60,0 C 0,0 C 0,0 km/h
04.03.2019 13:00 0,0 C 0 % 998,1 hPa 0,0 l/m 0,0 km/h - - -60,0 C 0,0 C 0,0 km/h
04.03.2019 14:00 0,0 C 0 % 996,2 hPa 0,0 l/m 0,0 km/h - - -60,0 C 0,0 C 0,0 km/h
04.03.2019 15:00 0,0 C 0 % 995,1 hPa 0,0 l/m 0,0 km/h - - -60,0 C 0,0 C 0,0 km/h
04.03.2019 16:00 0,0 C 0 % 995,4 hPa 0,0 l/m 0,0 km/h - - -60,0 C 0,0 C 0,0 km/h
04.03.2019 17:00 0,0 C 0 % 997,5 hPa 0,0 l/m 0,0 km/h - - -60,0 C 0,0 C 0,0 km/h
04.03.2019 18:00 0,0 C 0 % 1000,5 hPa 0,0 l/m 0,0 km/h - - -60,0 C 0,0 C 0,0 km/h
04.03.2019 19:00 0,0 C 0 % 1000,5 hPa 0,0 l/m 0,0 km/h - - -60,0 C 0,0 C 0,0 km/h
04.03.2019 20:00 0,0 C 0 % 1000,4 hPa 0,0 l/m 0,0 km/h - - -60,0 C 0,0 C 0,0 km/h
04.03.2019 21:00 0,0 C 0 % 1000,4 hPa 0,0 l/m 0,0 km/h - - -60,0 C 0,0 C 0,0 km/h
04.03.2019 22:00 0,0 C 0 % 1000,2 hPa 0,0 l/m 0,0 km/h - - -60,0 C 0,0 C 0,0 km/h
04.03.2019 23:00 0,0 C 0 % 1000,7 hPa 0,0 l/m 0,0 km/h - - -60,0 C 0,0 C 0,0 km/h
05.03.2019 00:00 0,0 C 0 % 1002,5 hPa 0,0 l/m 0,0 km/h - - -60,0 C 0,0 C 0,0 km/h
05.03.2019 01:00 0,0 C 0 % 1004,7 hPa 0,0 l/m 0,0 km/h - - -60,0 C 0,0 C 0,0 km/h
05.03.2019 02:00 0,0 C 0 % 1005,1 hPa 0,0 l/m 0,0 km/h - - -60,0 C 0,0 C 0,0 km/h
05.03.2019 03:00 0,0 C 0 % 1005,2 hPa 0,0 l/m 0,0 km/h - - -60,0 C 0,0 C 0,0 km/h
05.03.2019 04:00 0,0 C 0 % 1005,2 hPa 0,0 l/m 0,0 km/h - - -60,0 C 0,0 C 0,0 km/h
05.03.2019 05:00 0,0 C 0 % 1006,1 hPa 0,0 l/m 0,0 km/h - - -60,0 C 0,0 C 0,0 km/h
05.03.2019 06:00 0,0 C 0 % 1007,3 hPa 0,0 l/m 0,0 km/h - - -60,0 C 0,0 C 0,0 km/h
05.03.2019 07:00 0,0 C 0 % 1008,4 hPa 0,0 l/m 0,0 km/h - - -60,0 C 0,0 C 0,0 km/h
05.03.2019 08:00 0,0 C 0 % 1008,9 hPa 0,0 l/m 0,0 km/h - - -60,0 C 0,0 C 0,0 km/h
05.03.2019 09:00 0,0 C 0 % 1009,1 hPa 0,0 l/m 0,0 km/h - - -60,0 C 0,0 C 0,0 km/h
05.03.2019 10:00 0,0 C 0 % 1009,5 hPa 0,0 l/m 0,0 km/h - - -60,0 C 0,0 C 0,0 km/h
05.03.2019 11:00 0,0 C 0 % 1009,9 hPa 0,0 l/m 0,0 km/h - - -60,0 C 0,0 C 0,0 km/h
05.03.2019 12:00 0,0 C 0 % 1010,1 hPa 0,0 l/m 0,0 km/h - - -60,0 C 0,0 C 0,0 km/h
05.03.2019 13:00 0,0 C 0 % 1009,8 hPa 0,0 l/m 0,0 km/h - - -60,0 C 0,0 C 0,0 km/h
05.03.2019 14:00 0,0 C 0 % 1009,3 hPa 0,0 l/m 0,0 km/h - - -60,0 C 0,0 C 0,0 km/h
05.03.2019 15:00 0,0 C 0 % 1009,0 hPa 0,0 l/m 0,0 km/h - - -60,0 C 0,0 C 0,0 km/h
05.03.2019 16:00 0,0 C 0 % 1008,5 hPa 0,0 l/m 0,0 km/h - - -60,0 C 0,0 C 0,0 km/h
05.03.2019 17:00 0,0 C 0 % 1008,5 hPa 0,0 l/m 0,0 km/h - - -60,0 C 0,0 C 0,0 km/h
05.03.2019 18:00 0,0 C 0 % 1009,5 hPa 0,0 l/m 0,0 km/h - - -60,0 C 0,0 C 0,0 km/h
05.03.2019 19:00 0,0 C 0 % 1010,1 hPa 0,0 l/m 0,0 km/h - - -60,0 C 0,0 C 0,0 km/h
05.03.2019 20:00 0,0 C 0 % 1011,0 hPa 0,0 l/m 0,0 km/h - - -60,0 C 0,0 C 0,0 km/h
05.03.2019 21:00 0,0 C 0 % 1012,1 hPa 0,0 l/m 0,0 km/h - - -60,0 C 0,0 C 0,0 km/h
05.03.2019 22:00 0,0 C 0 % 1013,1 hPa 0,0 l/m 0,0 km/h - - -60,0 C 0,0 C 0,0 km/h
05.03.2019 23:00 0,0 C 0 % 1013,6 hPa 0,0 l/m 0,0 km/h - - -60,0 C 0,0 C 0,0 km/h
06.03.2019 00:00 0,0 C 0 % 1013,9 hPa 0,0 l/m 0,0 km/h - - -60,0 C 0,0 C 0,0 km/h
06.03.2019 01:00 0,0 C 0 % 1014,4 hPa 0,0 l/m 0,0 km/h - - -60,0 C 0,0 C 0,0 km/h
06.03.2019 02:00 0,0 C 0 % 1014,7 hPa 0,0 l/m 0,0 km/h - - -60,0 C 0,0 C 0,0 km/h
06.03.2019 03:00 0,0 C 0 % 1014,8 hPa 0,0 l/m 0,0 km/h - - -60,0 C 0,0 C 0,0 km/h
06.03.2019 04:00 0,0 C 0 % 1015,2 hPa 0,0 l/m 0,0 km/h - - -60,0 C 0,0 C 0,0 km/h
06.03.2019 05:00 0,0 C 0 % 1016,0 hPa 0,0 l/m 0,0 km/h - - -60,0 C 0,0 C 0,0 km/h
06.03.2019 06:00 0,0 C 0 % 1016,4 hPa 0,0 l/m 0,0 km/h - - -60,0 C 0,0 C 0,0 km/h
06.03.2019 07:00 0,0 C 0 % 1016,5 hPa 0,0 l/m 0,0 km/h - - -60,0 C 0,0 C 0,0 km/h
06.03.2019 08:00 0,0 C 0 % 1016,7 hPa 0,0 l/m 0,0 km/h - - -60,0 C 0,0 C 0,0 km/h
06.03.2019 09:00 0,0 C 0 % 1016,7 hPa 0,0 l/m 0,0 km/h - - -60,0 C 0,0 C 0,0 km/h
06.03.2019 10:00 0,0 C 0 % 1016,6 hPa 0,0 l/m 0,0 km/h - - -60,0 C 0,0 C 0,0 km/h
06.03.2019 11:00 0,0 C 0 % 1015,8 hPa 0,0 l/m 0,0 km/h - - -60,0 C 0,0 C 0,0 km/h
06.03.2019 12:00 0,0 C 0 % 1014,5 hPa 0,0 l/m 0,0 km/h - - -60,0 C 0,0 C 0,0 km/h
06.03.2019 13:00 0,0 C 0 % 1013,2 hPa 0,0 l/m 0,0 km/h - - -60,0 C 0,0 C 0,0 km/h
06.03.2019 14:00 0,0 C 0 % 1012,1 hPa 0,0 l/m 0,0 km/h - - -60,0 C 0,0 C 0,0 km/h
06.03.2019 15:00 0,0 C 0 % 1011,2 hPa 0,0 l/m 0,0 km/h - - -60,0 C 0,0 C 0,0 km/h
06.03.2019 16:00 0,0 C 0 % 1010,2 hPa 0,0 l/m 0,0 km/h - - -60,0 C 0,0 C 0,0 km/h
06.03.2019 17:00 0,0 C 0 % 1009,3 hPa 0,0 l/m 0,0 km/h - - -60,0 C 0,0 C 0,0 km/h
06.03.2019 18:00 0,0 C 0 % 1008,6 hPa 0,0 l/m 0,0 km/h - - -60,0 C 0,0 C 0,0 km/h
06.03.2019 19:00 0,0 C 0 % 1008,0 hPa 0,0 l/m 0,0 km/h - - -60,0 C 0,0 C 0,0 km/h
06.03.2019 20:00 0,0 C 0 % 1007,1 hPa 0,0 l/m 0,0 km/h - - -60,0 C 0,0 C 0,0 km/h
06.03.2019 21:00 0,0 C 0 % 1006,3 hPa 0,0 l/m 0,0 km/h - - -60,0 C 0,0 C 0,0 km/h
06.03.2019 22:00 0,0 C 0 % 1005,6 hPa 0,0 l/m 0,0 km/h - - -60,0 C 0,0 C 0,0 km/h
06.03.2019 23:00 0,0 C 0 % 1005,2 hPa 0,0 l/m 0,0 km/h - - -60,0 C 0,0 C 0,0 km/h
07.03.2019 00:00 0,0 C 0 % 1004,5 hPa 0,0 l/m 0,0 km/h - - -60,0 C 0,0 C 0,0 km/h
07.03.2019 01:00 0,0 C 0 % 1004,0 hPa 0,0 l/m 0,0 km/h - - -60,0 C 0,0 C 0,0 km/h
07.03.2019 02:00 0,0 C 0 % 1003,7 hPa 0,0 l/m 0,0 km/h - - -60,0 C 0,0 C 0,0 km/h
07.03.2019 03:00 0,0 C 0 % 1003,1 hPa 0,0 l/m 0,0 km/h - - -60,0 C 0,0 C 0,0 km/h
07.03.2019 04:00 0,0 C 0 % 1003,2 hPa 0,0 l/m 0,0 km/h - - -60,0 C 0,0 C 0,0 km/h
07.03.2019 05:00 0,0 C 0 % 1002,9 hPa 0,0 l/m 0,0 km/h - - -60,0 C 0,0 C 0,0 km/h
07.03.2019 06:00 0,0 C 0 % 1002,6 hPa 0,0 l/m 0,0 km/h - - -60,0 C 0,0 C 0,0 km/h
07.03.2019 07:00 0,0 C 0 % 1002,4 hPa 0,0 l/m 0,0 km/h - - -60,0 C 0,0 C 0,0 km/h
07.03.2019 08:00 0,0 C 0 % 1002,1 hPa 0,0 l/m 0,0 km/h - - -60,0 C 0,0 C 0,0 km/h
07.03.2019 09:00 0,0 C 0 % 1002,1 hPa 0,0 l/m 0,0 km/h - - -60,0 C 0,0 C 0,0 km/h
07.03.2019 10:00 0,0 C 0 % 1001,8 hPa 0,0 l/m 0,0 km/h - - -60,0 C 0,0 C 0,0 km/h
07.03.2019 11:00 0,0 C 0 % 1002,0 hPa 0,0 l/m 0,0 km/h - - -60,0 C 0,0 C 0,0 km/h
07.03.2019 12:00 0,0 C 0 % 1001,6 hPa 0,0 l/m 0,0 km/h - - -60,0 C 0,0 C 0,0 km/h
07.03.2019 13:00 0,0 C 0 % 1000,9 hPa 0,0 l/m 0,0 km/h - - -60,0 C 0,0 C 0,0 km/h
07.03.2019 14:00 0,0 C 0 % 1001,3 hPa 0,0 l/m 0,0 km/h - - -60,0 C 0,0 C 0,0 km/h
07.03.2019 15:00 0,0 C 0 % 1002,1 hPa 0,0 l/m 0,0 km/h - - -60,0 C 0,0 C 0,0 km/h
07.03.2019 16:00 0,0 C 0 % 1003,8 hPa 0,0 l/m 0,0 km/h - - -60,0 C 0,0 C 0,0 km/h
07.03.2019 17:00 0,0 C 0 % 1005,4 hPa 0,0 l/m 0,0 km/h - - -60,0 C 0,0 C 0,0 km/h
07.03.2019 18:00 0,0 C 0 % 1007,3 hPa 0,0 l/m 0,0 km/h - - -60,0 C 0,0 C 0,0 km/h
07.03.2019 19:00 0,0 C 0 % 1008,2 hPa 0,0 l/m 0,0 km/h - - -60,0 C 0,0 C 0,0 km/h
07.03.2019 20:00 0,0 C 0 % 1008,4 hPa 0,0 l/m 0,0 km/h - - -60,0 C 0,0 C 0,0 km/h
07.03.2019 21:00 0,0 C 0 % 1008,6 hPa 0,0 l/m 0,0 km/h - - -60,0 C 0,0 C 0,0 km/h
07.03.2019 22:00 0,0 C 0 % 1009,3 hPa 0,0 l/m 0,0 km/h - - -60,0 C 0,0 C 0,0 km/h
07.03.2019 23:00 0,0 C 0 % 1009,9 hPa 0,0 l/m 0,0 km/h - - -60,0 C 0,0 C 0,0 km/h
08.03.2019 00:00 0,0 C 0 % 1010,3 hPa 0,0 l/m 0,0 km/h - - -60,0 C 0,0 C 0,0 km/h
08.03.2019 01:00 0,0 C 0 % 1010,8 hPa 0,0 l/m 0,0 km/h - - -60,0 C 0,0 C 0,0 km/h
08.03.2019 02:00 0,0 C 0 % 1011,0 hPa 0,0 l/m 0,0 km/h - - -60,0 C 0,0 C 0,0 km/h
08.03.2019 03:00 0,0 C 0 % 1011,1 hPa 0,0 l/m 0,0 km/h - - -60,0 C 0,0 C 0,0 km/h
08.03.2019 04:00 0,0 C 0 % 1011,2 hPa 0,0 l/m 0,0 km/h - - -60,0 C 0,0 C 0,0 km/h
08.03.2019 05:00 0,0 C 0 % 1011,5 hPa 0,0 l/m 0,0 km/h - - -60,0 C 0,0 C 0,0 km/h
08.03.2019 06:00 0,0 C 0 % 1012,0 hPa 0,0 l/m 0,0 km/h - - -60,0 C 0,0 C 0,0 km/h
08.03.2019 07:00 0,0 C 0 % 1012,5 hPa 0,0 l/m 0,0 km/h - - -60,0 C 0,0 C 0,0 km/h
08.03.2019 08:00 0,0 C 0 % 1012,8 hPa 0,0 l/m 0,0 km/h - - -60,0 C 0,0 C 0,0 km/h
08.03.2019 09:00 0,0 C 0 % 1013,3 hPa 0,0 l/m 0,0 km/h - - -60,0 C 0,0 C 0,0 km/h
08.03.2019 10:00 0,0 C 0 % 1013,6 hPa 0,0 l/m 0,0 km/h - - -60,0 C 0,0 C 0,0 km/h
08.03.2019 11:00 0,0 C 0 % 1013,9 hPa 0,0 l/m 0,0 km/h - - -60,0 C 0,0 C 0,0 km/h
08.03.2019 12:00 0,0 C 0 % 1014,1 hPa 0,0 l/m 0,0 km/h - - -60,0 C 0,0 C 0,0 km/h
08.03.2019 13:00 0,0 C 0 % 1014,1 hPa 0,0 l/m 0,0 km/h - - -60,0 C 0,0 C 0,0 km/h
08.03.2019 14:00 0,0 C 0 % 1014,3 hPa 0,0 l/m 0,0 km/h - - -60,0 C 0,0 C 0,0 km/h
08.03.2019 15:00 0,0 C 0 % 1014,6 hPa 0,0 l/m 0,0 km/h - - -60,0 C 0,0 C 0,0 km/h
08.03.2019 16:00 0,0 C 0 % 1015,0 hPa 0,0 l/m 0,0 km/h - - -60,0 C 0,0 C 0,0 km/h
08.03.2019 17:00 0,0 C 0 % 1015,5 hPa 0,0 l/m 0,0 km/h - - -60,0 C 0,0 C 0,0 km/h
08.03.2019 18:00 0,0 C 0 % 1016,2 hPa 0,0 l/m 0,0 km/h - - -60,0 C 0,0 C 0,0 km/h
08.03.2019 19:00 0,0 C 0 % 1016,9 hPa 0,0 l/m 0,0 km/h - - -60,0 C 0,0 C 0,0 km/h
08.03.2019 20:00 0,0 C 0 % 1017,6 hPa 0,0 l/m 0,0 km/h - - -60,0 C 0,0 C 0,0 km/h
08.03.2019 21:00 0,0 C 0 % 1018,4 hPa 0,0 l/m 0,0 km/h - - -60,0 C 0,0 C 0,0 km/h
08.03.2019 22:00 0,0 C 0 % 1018,8 hPa 0,0 l/m 0,0 km/h - - -60,0 C 0,0 C 0,0 km/h
08.03.2019 23:00 0,0 C 0 % 1019,2 hPa 0,0 l/m 0,0 km/h - - -60,0 C 0,0 C 0,0 km/h
09.03.2019 00:00 0,0 C 0 % 1019,5 hPa 0,0 l/m 0,0 km/h - - -60,0 C 0,0 C 0,0 km/h
09.03.2019 01:00 0,0 C 0 % 1019,4 hPa 0,0 l/m 0,0 km/h - - -60,0 C 0,0 C 0,0 km/h
09.03.2019 02:00 0,0 C 0 % 1019,2 hPa 0,0 l/m 0,0 km/h - - -60,0 C 0,0 C 0,0 km/h
09.03.2019 03:00 0,0 C 0 % 1019,1 hPa 0,0 l/m 0,0 km/h - - -60,0 C 0,0 C 0,0 km/h
09.03.2019 04:00 0,0 C 0 % 1018,8 hPa 0,0 l/m 0,0 km/h - - -60,0 C 0,0 C 0,0 km/h
09.03.2019 05:00 0,0 C 0 % 1018,5 hPa 0,0 l/m 0,0 km/h - - -60,0 C 0,0 C 0,0 km/h
09.03.2019 06:00 0,0 C 0 % 1018,0 hPa 0,0 l/m 0,0 km/h - - -60,0 C 0,0 C 0,0 km/h
09.03.2019 07:00 0,0 C 0 % 1017,7 hPa 0,0 l/m 0,0 km/h - - -60,0 C 0,0 C 0,0 km/h
09.03.2019 08:00 0,0 C 0 % 1017,5 hPa 0,0 l/m 0,0 km/h - - -60,0 C 0,0 C 0,0 km/h
09.03.2019 09:00 0,0 C 0 % 1017,4 hPa 0,0 l/m 0,0 km/h - - -60,0 C 0,0 C 0,0 km/h
09.03.2019 10:00 0,0 C 0 % 1017,0 hPa 0,0 l/m 0,0 km/h - - -60,0 C 0,0 C 0,0 km/h
09.03.2019 11:00 0,0 C 0 % 1016,6 hPa 0,0 l/m 0,0 km/h - - -60,0 C 0,0 C 0,0 km/h
09.03.2019 12:00 0,0 C 0 % 1016,3 hPa 0,0 l/m 0,0 km/h - - -60,0 C 0,0 C 0,0 km/h
09.03.2019 13:00 0,0 C 0 % 1015,6 hPa 0,0 l/m 0,0 km/h - - -60,0 C 0,0 C 0,0 km/h
09.03.2019 14:00 0,0 C 0 % 1014,8 hPa 0,0 l/m 0,0 km/h - - -60,0 C 0,0 C 0,0 km/h
09.03.2019 15:00 0,0 C 0 % 1014,1 hPa 0,0 l/m 0,0 km/h - - -60,0 C 0,0 C 0,0 km/h
09.03.2019 16:00 0,0 C 0 % 1014,3 hPa 0,0 l/m 0,0 km/h - - -60,0 C 0,0 C 0,0 km/h
09.03.2019 17:00 0,0 C 0 % 1014,3 hPa 0,0 l/m 0,0 km/h - - -60,0 C 0,0 C 0,0 km/h
09.03.2019 18:00 0,0 C 0 % 1013,6 hPa 0,0 l/m 0,0 km/h - - -60,0 C 0,0 C 0,0 km/h
09.03.2019 19:00 0,0 C 0 % 1013,9 hPa 0,0 l/m 0,0 km/h - - -60,0 C 0,0 C 0,0 km/h
09.03.2019 20:00 0,0 C 0 % 1014,1 hPa 0,0 l/m 0,0 km/h - - -60,0 C 0,0 C 0,0 km/h
09.03.2019 21:00 0,0 C 0 % 1012,8 hPa 0,0 l/m 0,0 km/h - - -60,0 C 0,0 C 0,0 km/h
09.03.2019 22:00 0,0 C 0 % 1012,5 hPa 0,0 l/m 0,0 km/h - - -60,0 C 0,0 C 0,0 km/h
09.03.2019 23:00 0,0 C 0 % 1012,3 hPa 0,0 l/m 0,0 km/h - - -60,0 C 0,0 C 0,0 km/h
10.03.2019 00:00 0,0 C 0 % 1012,8 hPa 0,0 l/m 0,0 km/h - - -60,0 C 0,0 C 0,0 km/h
10.03.2019 01:00 0,0 C 0 % 1013,5 hPa 0,0 l/m 0,0 km/h - - -60,0 C 0,0 C 0,0 km/h
10.03.2019 02:00 0,0 C 0 % 1015,1 hPa 0,0 l/m 0,0 km/h - - -60,0 C 0,0 C 0,0 km/h
10.03.2019 03:00 0,0 C 0 % 1014,7 hPa 0,0 l/m 0,0 km/h - - -60,0 C 0,0 C 0,0 km/h
10.03.2019 04:00 0,0 C 0 % 1014,5 hPa 0,0 l/m 0,0 km/h - - -60,0 C 0,0 C 0,0 km/h
10.03.2019 05:00 0,0 C 0 % 1014,4 hPa 0,0 l/m 0,0 km/h - - -60,0 C 0,0 C 0,0 km/h
10.03.2019 06:00 0,0 C 0 % 1014,1 hPa 0,0 l/m 0,0 km/h - - -60,0 C 0,0 C 0,0 km/h
10.03.2019 07:00 0,0 C 0 % 1014,0 hPa 0,0 l/m 0,0 km/h - - -60,0 C 0,0 C 0,0 km/h
10.03.2019 08:00 0,0 C 0 % 1013,4 hPa 0,0 l/m 0,0 km/h - - -60,0 C 0,0 C 0,0 km/h
10.03.2019 09:00 0,0 C 0 % 1012,4 hPa 0,0 l/m 0,0 km/h - - -60,0 C 0,0 C 0,0 km/h
10.03.2019 10:00 0,0 C 0 % 1011,8 hPa 0,0 l/m 0,0 km/h - - -60,0 C 0,0 C 0,0 km/h
10.03.2019 11:00 0,0 C 0 % 1010,0 hPa 0,0 l/m 0,0 km/h - - -60,0 C 0,0 C 0,0 km/h
10.03.2019 12:00 0,0 C 0 % 1008,9 hPa 0,0 l/m 0,0 km/h - - -60,0 C 0,0 C 0,0 km/h
10.03.2019 13:00 0,0 C 0 % 1007,5 hPa 0,0 l/m 0,0 km/h - - -60,0 C 0,0 C 0,0 km/h
10.03.2019 14:00 0,0 C 0 % 1006,1 hPa 0,0 l/m 0,0 km/h - - -60,0 C 0,0 C 0,0 km/h
10.03.2019 15:00 0,0 C 0 % 1004,9 hPa 0,0 l/m 0,0 km/h - - -60,0 C 0,0 C 0,0 km/h
10.03.2019 16:00 0,0 C 0 % 1003,3 hPa 0,0 l/m 0,0 km/h - - -60,0 C 0,0 C 0,0 km/h
10.03.2019 17:00 0,0 C 0 % 1002,1 hPa 0,0 l/m 0,0 km/h - - -60,0 C 0,0 C 0,0 km/h
10.03.2019 18:00 0,0 C 0 % 1002,5 hPa 0,0 l/m 0,0 km/h - - -60,0 C 0,0 C 0,0 km/h
10.03.2019 19:00 0,0 C 0 % 1004,3 hPa 0,0 l/m 0,0 km/h - - -60,0 C 0,0 C 0,0 km/h
10.03.2019 20:00 0,0 C 0 % 1004,7 hPa 0,0 l/m 0,0 km/h - - -60,0 C 0,0 C 0,0 km/h
10.03.2019 21:00 0,0 C 0 % 1005,3 hPa 0,0 l/m 0,0 km/h - - -60,0 C 0,0 C 0,0 km/h
10.03.2019 22:00 0,0 C 0 % 1006,6 hPa 0,0 l/m 0,0 km/h - - -60,0 C 0,0 C 0,0 km/h
10.03.2019 23:00 0,0 C 0 % 1007,0 hPa 0,0 l/m 0,0 km/h - - -60,0 C 0,0 C 0,0 km/h
Min-Datum _ 04.03.19 04.03.19 04.03.19 - 04.03.19 - 04.03.19 04.03.19 04.03.19
_ Min-Zeit 00:00 00:00 15:15 - 00:00 - 00:00 00:00 00:00
Minimum _ 0,0 C 0 % 995,0 hPa - 0,0 km/h - -60,0 C 0,0 C 0,0 km/h
Max-Datum _ 04.03.19 04.03.19 09.03.19 04.03.19 04.03.19 - 04.03.19 04.03.19 04.03.19
_ Max-Zeit 00:00 00:00 00:31 00:00 00:00 - 00:00 00:00 00:00
Maximum _ 0,0 C 0 % 1019,5 hPa 0,0 l/m 0,0 km/h
- -
- -60,0 C 0,0 C 0,0 km/h
- -
Durchschnitt _ 0,0 C 0 % 1009,6 hPa #0,0 l/m 0,0 km/h - - -60,0 C 0,0 C 0,0 km/h